Regional Weather Roundup
Issued by NWS

Home | Current Version | Previous Version | Graphics & Text | Print | Product List | Glossary Off
Versions: 1 2 3 4 5 6 7 8 9 10 11 12 13 14 15 16 17 18 19 20 21 22 23 24 25 26 27 28 29 30 31 32 33 34 35 36 37 38 39 40 41 42 43 44 45 46 47 48

000
ASUS43 KDMX 191107
RWRIA

WEATHER ROUNDUP FOR IOWA
NATIONAL WEATHER SERVICE DES MOINES IA
600 AM CDT FRI SEP 19 2014

NOTE: "FAIR" INDICATES FEW OR NO CLOUDS BELOW 12,000 FEET WITH NO
SIGNIFICANT WEATHER AND/OR OBSTRUCTIONS TO VISIBILITY.

* - THESE STATIONS ARE NOT NWS STATIONS...THUS NOT UNDER NWS
QUALITY CONTROL.  THEY ALSO DO NOT REPORT WEATHER SUCH
AS PRECIPITATION OR FOG.

IAZ001>003-012>014-020>022-031>034-043>046-191200-
   NORTHWEST IOWA

CITY           SKY/WX    TMP DP  RH WIND       PRES   REMARKS
CARROLL *      MOCLDY    55  55 100 SE6       29.97S FOG
CHEROKEE *     CLOUDY    61  61 100 S12G18    29.91F
DENISON *      CLOUDY    61  61 100 S10G20    29.92F
LE MARS *        N/A    N/A N/A N/A S14G22    29.89R
ORANGE CITY *  CLOUDY    63  59  88 S15G22    29.89R FOG
SHELDON *      CLOUDY    61  59  94 S13G22    29.89R
SIOUX CITY     CLOUDY    62  60  93 VRB7      29.89S
SPENCER        CLOUDY    60  57  89 S14       29.92S
STORM LAKE *   CLOUDY    61  61 100 S13G20    29.93S FOG
$$

IAZ055>058-069>071-079>083-090>094-191200-
   SOUTHWEST IOWA

CITY           SKY/WX    TMP DP  RH WIND       PRES   REMARKS
ATLANTIC *     CLOUDY    61  59  94 S10       29.97S
AUDUBON *      MOCLDY    59  54  82 S8        29.98S HAZE
CLARINDA *     MOCLDY    61  61 100 S7        30.01S FOG
COUNCIL BLFS *   N/A     61  61 100 S13       29.94S FOG
CRESTON *      CLOUDY    55  55 100 S6        30.02R FOG
HARLAN  *      CLOUDY    61  61 100 S10       30.00S
LAMONI         CLEAR     56  54  93 SE7       30.02S
SHENANDOAH *     N/A     61  61 100 S9G16     29.98F FOG
$$

IAZ047>049-059>061-072>074-084-191200-
   CENTRAL IOWA

CITY           SKY/WX    TMP DP  RH WIND       PRES   REMARKS
AMES           CLEAR     52  52 100 SE6       30.01F FOG
ANKENY *       CLEAR     55  54  94 S3        30.01F
CHARITON *     PTCLDY    54  52  94 S8        30.03S
DES MOINES     PTCLDY    58  53  84 SE9       30.01S
GRINNELL*      PTCLDY    52  48  87 SE5       30.05S
KNOXVILLE *    PTCLDY    55  52  88 SE6       30.03S
MARSHALLTOWN   CLEAR     52  49  89 SE9       30.02F
PELLA *        CLEAR     54  52  94 SE6       30.06S
PERRY *          N/A     55  55 100 S8        29.99S
$$

IAZ004>006-015-016-023>025-035-036-191200-
   NORTH CENTRAL IOWA

CITY           SKY/WX    TMP DP  RH WIND       PRES   REMARKS
ALGONA *       CLEAR     55  54  94 S14       29.96S
CLARION *        N/A     57  55  94 S10       29.99S
ESTHERVILLE    CLOUDY    58  55  90 S16       29.93S
FORT DODGE *   PTCLDY    57  54  88 S8        29.98S
MASON CITY     CLEAR     53  50  89 S12       30.01S
FOREST CITY *  CLEAR     54  54 100 S9        29.99S
IOWA FALLS *     N/A     54  50  87 SE8       30.03R
$$

IAZ007>011-017>019-026>030-037>042-050>054-066-191200-
   NORTHEAST IOWA

CITY           SKY/WX    TMP DP  RH WIND       PRES   REMARKS
CEDAR RAPIDS   CLEAR     49  48  97 SE7       30.07R
CHARLES CITY * CLEAR     52  50  93 SE9       30.03F
CLINTON *      PTCLDY    54  50  87 SE7       30.13S
DECORAH *      CLEAR     52  50  93 S8G16     30.04S FOG
DUBUQUE        PTCLDY    52  51  97 SE13      30.10R FOG
MONTICELLO *   CLOUDY    52  52 100 SE6       30.09R FOG
OELWEIN *      CLEAR     52  50  93 SE9       30.06F FOG
WATERLOO       CLEAR     53  49  86 SE12      30.03F
$$

IAZ064-065-067-068-078-191200-
   EAST CENTRAL IOWA

CITY           SKY/WX    TMP DP  RH WIND       PRES   REMARKS
DAVENPORT      CLEAR     52  49  89 SE7       30.10S FOG
IOWA CITY      CLEAR     51  48  89 CALM      30.10R
MT. PLEASANT * CLEAR     50  48  93 SE6       30.08S
MUSCATINE *    CLEAR     46  45  93 CALM      30.09S
QUAD CITIES    CLEAR     47  46  97 E6        30.10S FOG
$$

IAZ062-063-075>077-085>089-095>099-191200-
   SOUTHEAST IOWA

CITY           SKY/WX    TMP DP  RH WIND       PRES   REMARKS
BURLINGTON     CLEAR     52  48  86 CALM      30.08S
FAIRFIELD *    CLEAR     50  46  87 SE6       30.07S
FORT MADISON * CLEAR     54  48  82 CALM      30.09S
KEOKUK *       CLEAR     52  50  93 CALM      30.08R
OSKALOOSA *      N/A     52  50  93 SE7       30.06F
CENTERVILLE *  CLEAR     52  52 100 SE5       30.06S
OTTUMWA        CLEAR     50  48  93 SE3       30.06R
WASHINGTON *   CLEAR     48  48 100 SE6       30.08R
$$

ABBREVIATIONS USED IN REMARKS
   TC - TEMPERATURES IN CELSIUS
  WCI - WIND CHILL INDEX
   HX - HEAT INDEX
  VSB - VISIBILITY
$$



USA.gov is the U.S. government's official web portal to all federal, state and local government web resources and services.